Clarksville, TN

10:42 PM CST on December 10, 2017 (GMT -0600)
Outlaw

Weather History for KCKV - May, 2014

Change the Weather History Date:

Monday, May 5, 2014

  Actual Average Record
Temperature  
Mean Temperature 74 °F 63 °F  
Max Temperature 85 °F 75 °F 95 °F (1952)
Min Temperature 62 °F 52 °F 37 °F (1954)
Degree Days  
Heating Degree Days 0    
Month to date heating degree days 26  
Since 1 July heating degree days 4354  
Cooling Degree Days 9    
Month to date cooling degree days 13  
Year to date cooling degree days  
Growing Degree Days 23 (Base 50)    
Moisture  
Dew Point 51 °F    
Average Humidity 50    
Maximum Humidity 67    
Minimum Humidity 32    
Precipitation  
Precipitation 0.00 in 0.24 in 1.50 in (1984)
Month to date precipitation 0.00 1.19  
Year to date precipitation 17.21  
Sea Level Pressure  
Sea Level Pressure 29.87 in    
Wind  
Wind Speed 10 mph (SW)    
Max Wind Speed 22 mph    
Max Gust Speed 28 mph    
Visibility 10 miles    
Events      
T = Trace of Precipitation, MM = Missing Value Source: NWS Daily Summary

Daily Weather History Graph

Daily Weather History Graph

Search for Another Location

Airport or City:

Trip Planner

Search our weather history database for the weather conditions in past years. The results will help you decide how hot, cold, wet, or windy it might be!

Date:

Astronomy

May. 05, 2014 Rise Set
Actual Time 5:51 AM CDT 7:41 PM CDT
Civil Twilight 5:23 AM CDT 8:09 PM CDT
Nautical Twilight 4:49 AM CDT 8:43 PM CDT
Astronomical Twilight 4:13 AM CDT 9:19 PM CDT
Moon 11:10 AM CDT (5/5) 12:25 AM CDT (5/5)
Length of Visible Light 14h 45m
Length of Day
13h 49m
Waxing Crescent, 37% of the Moon is Illuminated
May 5
Waxing Crescent
May 6
First Quarter
May 14
Full
May 21
Last Quarter
May 28
New

Hourly Weather History & Observations

Time (CDT) Temp. Heat Index Dew Point Humidity Pressure Visibility Wind Dir Wind Speed Gust Speed Precip Events Conditions
1:52 AM 66.9 °F - 50.0 °F 54% 29.89 in 10.0 mi SSW 9.2 mph - N/A   Clear
2:52 AM 66.9 °F - 50.0 °F 54% 29.88 in 10.0 mi SSW 6.9 mph - N/A   Clear
3:52 AM 64.0 °F - 50.0 °F 60% 29.90 in 10.0 mi SSW 5.8 mph - N/A   Clear
4:52 AM 62.1 °F - 50.0 °F 65% 29.90 in 10.0 mi SSW 8.1 mph - N/A   Clear
5:52 AM 64.9 °F - 50.0 °F 58% 29.91 in 10.0 mi SW 3.5 mph - N/A   Clear
6:52 AM 62.1 °F - 52.0 °F 70% 29.92 in 10.0 mi South 6.9 mph - N/A   Clear
7:52 AM 68.0 °F - 53.1 °F 59% 29.92 in 10.0 mi SSW 6.9 mph - N/A   Clear
8:52 AM 72.0 °F - 54.0 °F 53% 29.93 in 10.0 mi SW 6.9 mph - N/A   Clear
9:52 AM 75.9 °F - 54.0 °F 46% 29.93 in 10.0 mi WSW 12.7 mph 23.0 mph N/A   Clear
10:52 AM 80.1 °F 79.9 °F 53.1 °F 39% 29.92 in 10.0 mi West 18.4 mph 24.2 mph N/A   Clear
11:52 AM 81.0 °F 80.5 °F 54.0 °F 39% 29.91 in 10.0 mi WSW 17.3 mph 26.5 mph N/A   Clear
1:52 PM 82.9 °F - 52.0 °F 34% 29.86 in 10.0 mi SW 16.1 mph 24.2 mph N/A   Clear
2:52 PM 84.0 °F - 51.1 °F 32% 29.84 in 10.0 mi SSW 15.0 mph 24.2 mph N/A   Clear
3:52 PM 84.9 °F - 52.0 °F 32% 29.82 in 3.0 mi SW 10.4 mph 17.3 mph N/A   Haze
4:52 PM 84.0 °F - 52.0 °F 33% 29.81 in 10.0 mi SSW 15.0 mph 20.7 mph N/A   Clear
5:52 PM 82.9 °F - 50.0 °F 32% 29.80 in 10.0 mi SSW 12.7 mph 23.0 mph N/A   Clear
6:52 PM 81.0 °F - 48.9 °F 33% 29.80 in 10.0 mi SW 9.2 mph - N/A   Clear
7:52 PM 77.0 °F - 46.9 °F 34% 29.81 in 10.0 mi SSW 5.8 mph - N/A   Clear
8:52 PM 71.1 °F - 48.9 °F 45% 29.81 in 10.0 mi SSW 6.9 mph - N/A   Clear
9:52 PM 69.1 °F - 46.9 °F 45% 29.82 in 10.0 mi SSW 8.1 mph - N/A   Clear
11:52 PM 70.0 °F - 46.0 °F 42% 29.85 in 10.0 mi SW 8.1 mph - N/A   Clear